EW3263 Weather Reports


Display with metric or nautical units.
time (UTC)temp
F
wind
direction
speed
MPH
gust
MPH
rain 1hr
in
rain 24hr
in
rain mn
in
humidity
%
barometer
mb
20260902031548 70 0.0 0.0 0.00 0.00 0.00 61 1019.5
20260902030043 71 0.0 0.0 0.00 0.00 0.00 58 1019.4
20260902024539 72 0.0 0.0 0.00 0.00 0.00 56 1019.3
20260902023035 73 0.0 0.0 0.00 0.00 0.00 54 1019.1
20260902021530 74 0.0 0.0 0.00 0.00 0.00 53 1019.1
20260902020026 75 0.0 0.0 0.00 0.00 0.00 50 1019.0
20260902014530 76 0.0 0.0 0.00 0.00 0.00 49 1019.1
20260902013017 77 0.0 0.0 0.00 0.00 0.00 47 1019.1
20260902011513 78 0.0 0.0 0.00 0.00 0.00 46 1019.0
20260902010008 79 0.0 0.0 0.00 0.00 0.00 44 1019.1
20260902004506 80 0.0 0.0 0.00 0.00 0.00 41 1019.1
20260902003101 81 0.0 0.0 0.00 0.00 0.00 41 1019.0
20260902001556 82 0.0 0.0 0.00 0.00 0.00 41 1019.0
20260902000054 82 0.0 0.0 0.00 0.00 0.00 40 1019.0
20260901234557 82 0.0 0.0 0.00 0.00 0.00 42 1019.1
20260901233042 83 0.0 0.0 0.00 0.00 0.00 41 1019.2
20260901231538 84 0.0 0.0 0.00 0.00 0.00 40 1019.1
20260901230042 84 0.0 0.0 0.00 0.00 0.00 40 1019.2
20260901224530 85 0.0 0.0 0.00 0.00 0.00 39 1019.2
20260901223026 85 0.0 0.0 0.00 0.00 0.00 38 1019.2
20260901221521 86 0.0 0.0 0.00 0.00 0.00 37 1019.4
20260901220016 86 0.0 0.0 0.00 0.00 0.00 38 1019.4
20260901214512 86 0.0 0.0 0.00 0.00 0.00 40 1019.6
20260901213025 86 0.0 0.0 0.00 0.00 0.00 36 1019.5
20260901211504 87 0.0 0.0 0.00 0.00 0.00 34 1019.7
20260901210059 87 0.0 0.0 0.00 0.00 0.00 32 1019.7
20260901204555 87 0.0 0.0 0.00 0.00 0.00 29 1019.9
20260901203059 87 0.0 0.0 0.00 0.00 0.00 26 1019.9
20260901201547 87 0.0 0.0 0.00 0.00 0.00 25 1020.0
20260901200051 86 0.0 0.0 0.00 0.00 0.00 27 1020.1
20260901194537 85 0.0 0.0 0.00 0.00 0.00 30 1020.2
20260901193042 85 0.0 0.0 0.00 0.00 0.00 34 1020.3
20260901191530 84 0.0 0.0 0.00 0.00 0.00 32 1020.5
20260901190025 84 0.0 0.0 0.00 0.00 0.00 33 1020.5
20260901184530 83 0.0 0.0 0.00 0.00 0.00 32 1020.6
20260901183016 83 0.0 0.0 0.00 0.00 0.00 35 1020.8
20260901181516 81 0.0 0.0 0.00 0.00 0.00 39 1020.8
20260901180007 80 0.0 0.0 0.00 0.00 0.00 43 1020.9
20260901174503 79 0.0 0.0 0.00 0.00 0.00 45 1021.1
20260901173058 78 0.0 0.0 0.00 0.00 0.00 48 1021.0
20260901171605 76 0.0 0.0 0.00 0.00 0.00 49 1020.9
20260901170050 75 0.0 0.0 0.00 0.00 0.00 52 1020.8
20260901164545 75 0.0 0.0 0.00 0.00 0.00 49 1020.8
20260901163041 74 0.0 0.0 0.00 0.00 0.00 48 1020.7
20260901161539 74 0.0 0.0 0.00 0.00 0.00 44 1020.4
20260901160035 74 0.0 0.0 0.00 0.00 0.00 48 1020.3
20260901154527 72 0.0 0.0 0.00 0.00 0.00 49 1020.2
20260901153023 71 0.0 0.0 0.00 0.00 0.00 52 1020.2
20260901151519 70 0.0 0.0 0.00 0.00 0.00 54 1020.1
20260901150014 68 0.0 0.0 0.00 0.00 0.00 54 1020.1
20260901144510 65 0.0 0.0 0.00 0.00 0.00 50 1019.9
20260901143006 62 0.0 0.0 0.00 0.00 0.00 53 1019.8
20260901141501 60 0.0 0.0 0.00 0.00 0.00 57 1019.8
20260901140058 59 0.0 0.0 0.00 0.00 0.00 58 1019.8
20260901134554 59 0.0 0.0 0.00 0.00 0.00 59 1019.6
20260901133049 59 0.0 0.0 0.00 0.00 0.00 61 1019.5
20260901131550 59 0.0 0.0 0.00 0.00 0.00 60 1019.4
20260901130039 59 0.0 0.0 0.00 0.00 0.00 65 1019.3
20260901124536 59 0.0 0.0 0.00 0.00 0.00 69 1019.4
20260901123031 59 0.0 0.0 0.00 0.00 0.00 68 1019.4
20260901121534 59 0.0 0.0 0.00 0.00 0.00 68 1019.3
20260901120037 59 0.0 0.0 0.00 0.00 0.00 67 1019.3
20260901114519 60 0.0 0.0 0.00 0.00 0.00 67 1019.3
20260901113014 60 0.0 0.0 0.00 0.00 0.00 66 1019.1
20260901111510 60 0.0 0.0 0.00 0.00 0.00 67 1019.0
20260901110005 61 0.0 0.0 0.00 0.00 0.00 66 1018.9
20260901104606 61 0.0 0.0 0.00 0.00 0.00 66 1019.1
20260901103058 61 0.0 0.0 0.00 0.00 0.00 67 1019.0
20260901101552 61 0.0 0.0 0.00 0.00 0.00 68 1019.1
20260901100048 61 0.0 0.0 0.00 0.00 0.00 68 1019.2
20260901094544 61 0.0 0.0 0.00 0.00 0.00 69 1019.3
20260901093039 61 0.0 0.0 0.00 0.00 0.00 70 1019.3
20260901091535 62 0.0 0.0 0.00 0.00 0.00 70 1019.2
20260901090030 62 0.0 0.0 0.00 0.00 0.00 70 1019.1
20260901084526 62 0.0 0.0 0.00 0.00 0.00 70 1019.3
20260901083024 63 0.0 0.0 0.00 0.00 0.00 71 1019.2
20260901081518 63 0.0 0.0 0.00 0.00 0.00 70 1019.4
20260901080013 63 0.0 0.0 0.00 0.00 0.00 71 1019.4
20260901074509 64 0.0 0.0 0.00 0.00 0.00 72 1019.3
20260901073004 64 0.0 0.0 0.00 0.00 0.00 71 1019.4
20260901071605 64 0.0 0.0 0.00 0.00 0.00 72 1019.4
20260901070056 65 0.0 0.0 0.00 0.00 0.00 72 1019.4
20260901064551 65 0.0 0.0 0.00 0.00 0.00 72 1019.4
20260901063046 66 0.0 0.0 0.00 0.00 0.00 70 1019.5
20260901061542 66 0.0 0.0 0.00 0.00 0.00 69 1019.4
20260901060039 67 0.0 0.0 0.00 0.00 0.00 69 1019.3
20260901054533 67 0.0 0.0 0.00 0.00 0.00 69 1019.2
20260901053029 67 0.0 0.0 0.00 0.00 0.00 69 1019.2
20260901051525 68 0.0 0.0 0.00 0.00 0.00 69 1019.1
20260901050021 68 0.0 0.0 0.00 0.00 0.00 69 1019.0
20260901044516 68 0.0 0.0 0.00 0.00 0.00 70 1019.0
20260901043013 69 0.0 0.0 0.00 0.00 0.00 69 1019.0
20260901041507 69 0.0 0.0 0.00 0.00 0.00 69 1019.1
20260901040007 70 0.0 0.0 0.00 0.00 0.00 67 1019.1
20260901034608 70 0.0 0.0 0.00 0.00 0.00 66 1019.0
20260901033054 71 0.0 0.0 0.00 0.00 0.00 65 1018.7